GFSFLT1_925_rhum_087.txt.gz
RH
86 94 96 87 64 74 75 77 77 78 73 72 74 70 67 59 47 49 60 70 82 80 81 88 95 94 92 87 87 94 95 92 95
96 97 96 85 65 68 77 77 76 75 72 70 70 70 68 68 60 52 59 75 85 82 79 79 80 90 94 91 84 83 95 95 96
96 96 73 65 57 60 68 74 74 74 70 71 70 68 67 69 69 64 58 65 74 64 61 57 62 74 83 94 88 91 87 90 91
96 91 69 71 57 56 58 66 69 67 62 64 70 69 68 69 71 70 68 66 62 58 59 54 52 47 36 38 50 70 82 87 96
78 72 83 61 53 54 53 52 51 51 51 53 65 70 72 72 71 72 70 70 61 58 63 63 60 55 53 46 35 45 62 76 64
56 54 55 57 55 52 50 50 47 46 45 45 50 66 64 63 65 69 70 69 68 60 61 67 70 68 64 58 54 47 43 44 43
52 50 50 50 51 53 52 51 50 52 57 54 54 57 55 54 57 60 64 64 71 69 59 64 73 76 76 72 69 61 54 46 42
71 68 66 64 61 56 53 49 44 61 63 61 58 56 55 55 54 54 56 59 59 61 64 67 71 79 83 82 79 78 68 58 53
83 79 68 64 63 64 71 70 69 65 64 61 59 59 59 60 58 58 55 55 57 61 65 67 72 78 85 93 91 86 82 78 72
81 78 71 67 69 67 71 72 70 66 63 62 60 59 59 61 62 63 63 62 59 60 65 70 73 79 91 96 93 98 95 88 83
72 70 68 69 62 59 58 62 66 68 68 68 68 68 68 68 68 68 67 66 65 64 65 69 74 78 79 79 94 89 93 94 93
67 66 62 58 59 57 55 60 67 69 70 69 69 70 70 69 66 66 63 64 70 67 74 74 75 79 79 79 90 96 93 88 94
64 65 62 62 60 55 58 61 66 68 69 72 71 69 63 64 61 62 66 73 74 71 64 66 76 77 80 71 86 97 93 83 88
67 67 66 66 68 63 62 66 71 75 76 76 65 66 63 64 64 67 72 74 70 75 73 70 72 78 69 67 76 87 82 78 79
70 68 70 68 74 77 77 75 76 75 77 73 71 67 63 62 62 66 67 70 68 72 77 66 74 69 60 63 68 69 72 78 88
69 70 73 75 75 66 68 64 75 73 68 78 64 61 61 63 63 68 65 62 66 75 80 73 69 64 62 65 61 59 61 64 96
72 72 77 80 79 75 69 69 72 71 66 70 76 92 78 68 71 69 67 67 77 81 78 72 69 69 68 66 65 64 60 63 94
78 75 78 84 84 72 75 78 82 88 83 80 83 92 96 90 68 69 69 68 79 76 73 74 74 73 70 74 67 68 65 65 76
65 69 82 86 86 84 83 86 90 91 94 94 86 90 100 95 86 75 78 76 75 76 76 79 80 78 75 75 70 71 70 71 87
97 92 92 92 90 88 82 65 60 69 79 85 88 83 82 88 94 80 82 89 86 87 85 85 84 83 79 76 76 76 72 92 92

GFSFLT1_925_rhum_093.txt.gz
RH
90 96 95 96 96 95 91 81 76 88 78 68 63 54 51 52 58 69 77 80 84 82 78 88 92 84 85 96 94 98 98 96 95
97 98 97 98 98 96 88 82 77 78 78 70 68 67 62 60 57 61 85 84 86 82 76 75 72 73 60 77 86 88 84 87 84
97 99 99 100 100 91 99 91 80 76 72 72 71 68 69 68 68 66 85 84 89 80 65 64 61 55 42 36 43 54 66 80 88
98 97 96 98 97 91 89 84 77 71 70 71 70 70 71 72 70 69 74 82 87 72 65 61 57 53 50 47 40 40 61 77 83
97 96 96 99 91 84 81 79 74 65 58 64 69 70 70 68 71 70 68 73 79 65 64 67 67 64 60 57 54 49 49 44 52
96 86 83 66 65 67 66 63 58 55 54 52 55 67 63 58 61 66 66 66 84 73 67 64 68 69 70 69 70 63 52 50 44
70 66 62 59 58 58 58 56 53 50 53 56 54 62 56 54 53 58 61 64 76 90 74 71 70 72 77 81 80 78 74 62 60
60 58 57 53 52 52 52 51 50 52 60 62 60 57 58 60 58 56 55 58 62 88 83 74 73 77 85 87 87 88 85 81 76
55 54 54 53 51 51 49 51 53 56 64 63 61 61 61 61 62 63 62 61 61 62 76 74 74 77 88 86 89 92 98 95 91
68 70 68 67 66 65 62 69 71 70 68 65 64 63 65 66 67 68 68 68 67 66 68 73 73 83 78 80 86 81 82 91 90
75 82 78 70 67 69 72 74 72 71 70 70 70 70 70 70 70 69 66 64 68 67 70 70 68 80 73 75 75 74 74 77 83
84 83 75 71 72 68 66 65 64 68 71 70 70 71 72 68 63 63 58 59 60 68 70 76 72 72 73 72 74 71 70 68 68
81 80 74 70 70 69 66 60 60 67 69 69 73 74 72 65 60 62 60 60 59 69 73 74 72 70 73 74 69 64 64 60 60
79 74 71 71 65 63 61 58 63 69 76 78 75 72 71 71 66 66 63 63 65 70 69 72 74 72 74 69 63 62 57 57 61
80 74 71 71 66 67 66 62 68 73 74 74 77 70 66 64 64 65 62 64 64 64 68 74 80 80 79 69 70 65 64 64 76
77 78 72 72 70 69 71 78 77 74 75 79 76 67 66 65 69 67 70 68 65 62 71 83 85 86 81 77 76 73 65 75 90
77 74 75 73 75 76 81 78 74 75 75 83 86 75 66 75 73 72 70 68 67 77 88 92 90 89 79 74 68 65 63 66 78
88 80 91 92 91 94 98 98 91 79 81 84 85 73 75 82 81 81 75 72 73 83 92 93 90 82 77 73 71 68 66 72 88
83 89 99 100 91 80 84 85 95 96 98 93 90 94 97 77 75 84 86 82 80 80 83 85 84 82 79 77 74 74 70 77 90
90 100 100 94 87 83 82 82 86 73 67 67 73 79 81 90 85 72 81 89 86 85 85 86 87 86 83 81 78 77 71 69 75

GFSFLT1_925_rhum_099.txt.gz
RH
85 81 80 79 81 80 86 89 69 53 48 46 46 52 60 58 60 62 67 77 84 83 81 80 90 97 97 96 94 92 92 92 95
81 82 82 78 79 81 90 91 74 66 62 55 54 61 60 56 61 63 70 83 86 85 84 71 61 59 66 59 61 68 61 68 82
86 82 82 78 81 93 92 92 79 71 67 63 62 61 64 57 61 65 77 85 89 86 67 58 55 50 46 50 43 48 49 44 50
84 82 82 81 84 92 86 76 71 71 70 67 64 62 64 60 62 60 74 74 87 72 68 68 65 63 60 59 53 50 47 42 40
86 85 83 84 85 85 80 76 70 68 67 66 65 63 62 60 65 63 66 64 72 64 63 67 69 70 70 71 70 60 54 52 47
89 90 87 87 88 88 83 77 69 59 52 54 59 58 56 50 54 60 61 61 74 72 69 68 70 73 74 74 76 75 73 66 63
74 93 94 92 90 88 82 73 59 52 57 53 43 57 51 50 51 58 59 59 67 92 77 74 77 77 77 79 79 81 81 79 77
82 95 97 96 80 82 73 60 60 53 50 53 52 51 52 51 53 54 53 56 60 69 82 76 82 82 78 79 78 77 82 82 85
67 72 73 70 63 58 60 57 52 54 55 55 54 56 57 55 55 56 59 62 63 63 67 72 69 72 82 76 73 74 77 84 89
60 59 62 60 56 55 55 54 52 51 54 58 60 57 55 54 54 58 62 66 67 68 68 67 69 70 78 75 74 69 69 71 85
59 58 59 60 64 60 59 56 59 58 59 56 56 55 56 57 58 58 60 64 60 60 62 65 62 69 74 72 70 67 64 65 65
67 65 73 72 68 63 63 58 59 57 57 60 58 59 57 56 54 53 54 58 60 62 60 61 66 68 75 75 75 71 59 56 53
77 81 81 77 72 68 62 59 58 55 56 58 57 59 59 57 53 52 54 54 58 62 63 70 70 68 71 76 83 68 58 54 53
87 85 81 78 74 70 65 58 53 52 58 59 56 61 58 53 52 53 55 56 61 65 66 68 72 72 72 75 87 69 60 57 60
87 83 81 78 77 69 65 61 54 56 56 65 59 57 55 55 53 54 56 56 67 72 76 75 76 80 80 86 98 90 70 66 66
88 86 81 80 76 69 62 60 57 64 66 63 55 55 53 53 58 59 56 57 70 74 75 77 76 78 91 96 96 86 83 74 73
86 88 87 85 81 74 66 63 67 70 66 60 60 60 47 54 61 62 62 61 68 70 79 84 88 88 96 94 92 81 73 68 86
90 91 87 82 82 80 80 80 88 80 81 73 65 56 52 47 45 60 62 62 63 71 80 87 91 92 92 92 85 75 69 73 89
99 90 85 90 90 90 98 97 91 79 82 80 82 76 62 55 48 55 63 68 67 70 73 78 87 90 94 86 79 76 76 82 92
81 82 80 90 98 99 98 94 88 77 67 56 59 58 57 61 59 59 49 68 68 74 76 76 80 89 92 90 85 82 83 93 95

GFSFLT1_925_rhum_105.txt.gz
RH
94 84 93 84 77 91 94 56 39 32 33 59 62 64 64 64 63 54 62 73 81 81 80 73 84 80 81 77 80 83 86 85 82
83 81 88 80 74 86 64 53 46 42 46 60 61 63 68 68 67 51 64 82 86 84 81 79 63 72 67 73 81 81 80 82 85
74 76 76 76 78 88 76 65 55 49 51 59 62 62 68 68 66 49 58 78 87 83 78 70 67 66 64 60 56 65 81 72 86
75 75 75 78 75 85 92 72 62 56 55 53 63 66 65 68 70 65 51 66 77 68 67 69 68 66 65 66 68 67 60 60 58
79 77 81 77 75 86 87 73 66 60 56 53 60 66 65 66 67 66 52 58 63 62 64 67 68 67 68 72 72 72 71 69 68
80 76 76 78 79 86 74 66 62 58 55 52 49 58 61 65 68 66 60 54 63 68 70 71 70 72 74 76 74 74 72 74 77
78 78 76 76 79 80 73 65 58 47 44 39 46 55 51 54 55 64 62 52 62 72 75 76 75 75 75 76 76 76 78 72 72
80 80 76 76 79 85 74 66 53 50 55 56 52 54 52 54 54 52 54 52 58 66 73 78 74 76 75 74 74 76 77 77 78
81 82 78 79 85 88 71 59 44 54 57 58 58 55 53 57 56 57 57 59 60 64 66 69 75 79 80 76 73 72 73 72 82
81 84 84 87 86 79 58 56 56 56 56 56 58 58 57 56 57 57 59 62 62 62 59 60 63 66 70 73 76 72 66 60 59
86 84 88 78 74 63 62 61 57 54 51 56 58 58 59 58 58 58 58 56 58 61 60 60 62 66 71 75 76 71 62 55 52
75 71 69 63 59 64 63 57 54 57 56 58 59 59 59 58 53 53 52 52 58 61 64 67 67 72 73 76 82 74 65 56 53
71 66 67 69 62 59 58 60 58 60 61 61 61 60 59 60 56 55 51 52 64 67 69 68 71 72 73 76 98 81 68 55 54
61 63 62 61 61 64 64 62 62 61 59 57 60 60 60 58 57 54 55 57 58 60 61 70 74 74 76 74 97 92 70 58 58
59 62 63 71 70 66 65 63 62 58 55 56 60 62 61 57 56 55 56 57 56 54 68 71 74 80 76 78 98 98 79 67 67
66 79 78 78 76 73 69 66 64 59 54 64 65 59 56 58 58 58 58 57 57 66 69 74 85 81 79 95 98 99 97 86 73
76 84 86 82 79 76 71 68 65 62 58 68 70 76 64 63 60 58 55 59 66 70 70 83 86 82 79 82 98 99 98 92 89
77 85 83 81 81 80 76 70 64 68 75 71 69 84 74 71 65 63 59 57 66 68 68 69 82 83 80 81 89 98 93 86 95
86 84 84 85 84 78 77 74 72 68 76 90 78 74 64 68 73 69 65 62 60 71 75 74 78 82 86 87 89 89 83 84 90
83 76 72 74 71 66 79 73 73 78 71 82 89 80 69 68 66 70 71 68 68 70 72 76 81 86 86 84 88 88 87 95 97

GFSFLT1_925_rhum_111.txt.gz
RH
96 91 86 88 87 98 96 89 76 60 74 73 65 64 64 53 47 55 66 75 86 87 86 83 86 88 87 86 85 85 89 91 92
95 90 84 80 79 87 66 62 63 58 69 69 67 68 67 47 51 58 69 82 86 87 88 90 92 86 76 81 89 90 91 92 93
93 91 79 62 76 57 39 36 41 64 66 68 68 70 69 50 50 55 62 81 90 91 75 78 73 70 73 70 73 83 91 92 93
92 90 81 67 52 48 40 38 52 63 66 68 69 70 70 62 51 53 58 73 88 67 70 70 68 68 70 70 73 77 80 74 77
90 87 83 75 50 44 45 45 47 58 64 68 70 69 70 70 66 53 55 66 75 67 68 67 68 70 72 72 71 72 72 76 78
85 84 82 76 56 50 53 51 51 54 60 67 70 69 67 68 69 64 57 61 66 66 68 68 69 70 72 74 74 73 71 69 71
86 81 79 75 69 64 60 56 53 54 54 60 68 68 67 67 68 67 64 58 70 68 70 70 71 72 73 72 74 77 74 71 71
88 77 75 79 76 82 72 64 59 54 53 53 60 60 58 55 58 63 59 55 70 72 69 72 74 75 75 77 78 75 75 72 68
78 76 78 77 83 86 72 64 58 47 45 44 48 57 56 54 55 58 58 59 60 65 68 69 72 74 71 73 76 80 75 72 67
78 76 78 78 77 78 71 65 60 48 54 57 56 57 57 56 57 57 59 60 63 63 65 64 66 72 70 70 75 75 76 70 61
78 77 81 80 78 77 72 67 63 50 55 57 59 59 59 59 58 59 59 60 59 60 64 63 65 66 69 75 78 76 76 68 56
80 79 81 80 78 78 78 77 70 55 58 58 56 58 60 60 61 61 60 60 62 64 66 64 67 71 72 78 83 88 80 72 58
87 86 79 78 79 81 81 82 70 66 64 59 55 57 61 61 62 61 61 60 60 60 66 64 70 73 76 74 74 95 87 76 61
94 89 84 80 80 82 84 83 77 69 61 59 59 59 61 61 62 63 62 57 55 57 64 65 67 69 73 74 74 96 97 81 65
100 92 89 82 82 83 85 82 76 73 60 63 65 63 63 64 65 64 64 57 56 59 62 60 63 71 68 66 65 100 91 81 68
96 96 85 80 85 78 75 72 70 69 66 67 66 63 63 66 67 66 62 60 58 60 61 59 63 65 63 57 79 96 91 93 84
81 72 79 79 72 69 74 71 73 69 67 68 76 84 72 68 67 63 62 64 64 64 60 60 62 62 62 78 93 96 100 100 95
84 76 93 70 69 73 69 69 73 69 68 66 72 90 89 81 70 68 66 70 70 69 66 66 65 67 70 70 82 94 96 93 93
97 99 89 63 69 68 68 72 72 73 73 76 76 81 72 81 81 74 71 71 73 70 68 66 70 72 76 77 79 83 91 94 92
93 76 74 66 66 72 76 78 80 80 77 81 84 94 88 80 80 85 81 77 73 75 70 71 72 74 80 78 76 77 85 88 92